FW3958 Weather Reports


time (UTC)temp
C
wind
direction
speed
KPH
gust
KPH
rain 1hr
cm
rain 24hr
cm
rain mn
cm
humidity
%
barometer
mb
20260904213052 19 70 0.0 11.3 0.00 0.33 0.00 77 1014.5
20260904211551 18 41 0.0 4.8 0.00 0.33 0.00 79 1014.6
20260904210050 18 27 1.6 12.9 0.00 0.33 0.00 81 1014.6
20260904204551 18 50 0.0 4.8 0.00 0.33 0.00 78 1014.6
20260904203048 19 18 0.0 8.0 0.00 0.33 0.00 76 1014.7
20260904201553 19 78 0.0 14.5 0.00 0.33 0.00 73 1014.5
20260904200054 19 19 3.2 12.9 0.00 0.36 0.00 73 1014.5
20260904194548 19 26 1.6 9.7 0.00 0.36 0.00 78 1014.4
20260904193041 18 132 4.8 14.5 0.00 0.36 0.00 76 1014.6
20260904191539 18 111 0.0 16.1 0.00 0.36 0.00 77 1014.7
20260904190038 18 113 6.4 20.9 0.00 0.36 0.00 75 1014.6
20260904184600 17 132 4.8 17.7 0.00 0.36 0.00 80 1014.6
20260904183039 17 85 3.2 14.5 0.00 0.36 0.00 80 1014.6
20260904181535 17 72 3.2 19.3 0.00 0.36 0.00 80 1014.6
20260904180030 17 95 4.8 17.7 0.00 0.36 0.00 83 1014.6
20260904174600 17 21 4.8 17.7 0.00 0.36 0.00 84 1014.5
20260904173025 16 133 0.0 9.7 0.00 0.36 0.00 92 1014.5
20260904171522 16 114 0.0 8.0 0.00 0.36 0.00 93 1014.4
20260904170036 15 95 0.0 6.4 0.00 0.56 0.00 97 1014.3
20260904164516 13 68 0.0 6.4 0.00 0.56 0.00 98 1014.4
20260904163011 13 80 0.0 3.2 0.00 0.56 0.00 100 1014.4
20260904161509 12 43 0.0 0.0 0.00 0.56 0.00 100 1014.4
20260904160006 12 38 0.0 1.6 0.00 0.76 0.00 100 1014.3
20260904154503 12 68 0.0 0.0 0.00 0.76 0.00 100 1014.2
20260904153128 11 68 0.0 1.6 0.00 0.76 0.00 100 1014.0
20260904151605 10 41 0.0 0.0 0.00 0.76 0.00 100 1013.7
20260904150056 10 41 0.0 0.0 0.00 0.81 0.00 100 1013.7
20260904144556 10 41 0.0 0.0 0.00 0.81 0.00 100 1013.7
20260904143054 9 41 0.0 0.0 0.00 0.81 0.00 100 1013.5
20260904141552 9 90 0.0 0.0 0.00 0.81 0.00 100 1013.3
20260904140050 9 90 0.0 0.0 0.00 1.07 0.00 100 1013.0
20260904134548 8 90 0.0 0.0 0.00 1.07 0.00 100 1012.8
20260904133047 9 105 0.0 0.0 0.00 1.07 0.00 100 1012.6
20260904131545 9 105 0.0 0.0 0.00 1.07 0.00 100 1012.6
20260904130043 10 105 0.0 0.0 0.00 1.30 0.00 100 1012.7
20260904124542 10 105 0.0 0.0 0.00 1.30 0.00 100 1012.6
20260904123040 10 105 0.0 0.0 0.00 1.30 0.00 100 1012.6
20260904121640 10 102 0.0 0.0 0.00 1.30 0.00 100 1012.3
20260904120038 11 103 0.0 4.8 0.00 2.39 0.00 100 1012.2
20260904114536 10 53 0.0 1.6 0.00 2.39 0.00 100 1012.1
20260904113036 10 53 0.0 0.0 0.00 2.39 0.00 100 1012.1
20260904111535 10 53 0.0 3.2 0.00 2.39 0.00 100 1012.0
20260904110036 10 53 0.0 0.0 0.00 2.64 0.00 100 1011.9
20260904104531 10 53 0.0 0.0 0.00 2.64 0.00 100 1012.0
20260904103031 10 53 0.0 1.6 0.00 2.64 0.00 100 1012.0
20260904101530 10 52 0.0 0.0 0.00 2.64 0.00 100 1012.0
20260904100029 11 52 0.0 0.0 0.00 3.58 0.00 100 1012.1
20260904094527 11 52 0.0 1.6 0.00 3.58 0.00 100 1012.0
20260904093051 11 52 0.0 0.0 0.00 3.58 0.00 100 1012.1
20260904091527 11 52 0.0 1.6 0.00 3.58 0.00 100 1012.1
20260904090025 10 52 0.0 0.0 0.00 4.09 0.00 100 1012.1
20260904084525 10 52 0.0 0.0 0.00 4.09 0.00 100 1012.2
20260904083023 10 52 0.0 0.0 0.00 4.09 0.00 100 1012.0
20260904081521 11 53 0.0 3.2 0.00 4.09 0.00 100 1012.0
20260904080020 11 53 0.0 0.0 0.00 4.09 0.00 100 1011.7
20260904074517 10 67 0.0 3.2 0.00 4.09 0.00 100 1011.6
20260904073035 11 75 0.0 0.0 0.00 4.09 0.00 100 1011.6
20260904071515 11 75 0.0 0.0 0.00 4.09 0.00 100 1011.5
20260904070016 11 75 0.0 1.6 0.00 4.09 4.09 100 1011.5
20260904064517 11 74 0.0 0.0 0.00 4.09 4.09 100 1011.5
20260904063009 11 74 0.0 1.6 0.00 4.09 4.09 100 1011.6
20260904061511 11 85 0.0 1.6 0.00 4.09 4.09 100 1011.5
20260904060009 11 85 0.0 1.6 0.00 4.09 4.09 100 1011.4
20260904054510 12 85 0.0 8.0 0.00 4.09 4.09 100 1011.5
20260904053007 12 108 0.0 0.0 0.00 4.09 4.09 100 1011.5
20260904051510 12 109 0.0 0.0 0.00 4.09 4.09 100 1011.6
20260904050007 12 109 0.0 0.0 0.00 4.09 4.09 100 1011.6
20260904044507 12 109 0.0 1.6 0.00 4.09 4.09 100 1011.5
20260904043005 12 109 0.0 4.8 0.00 4.09 4.09 100 1011.4
20260904041504 12 110 0.0 3.2 0.00 4.09 4.09 100 1011.4
20260904040003 13 112 0.0 1.6 0.00 4.09 4.09 100 1011.4
20260904034501 13 112 0.0 3.2 0.00 4.09 4.09 100 1011.2
20260904033114 13 114 0.0 4.8 0.00 4.09 4.09 100 1010.9
20260904031558 13 85 0.0 0.0 0.00 4.09 4.09 100 1010.9
20260904030100 13 85 0.0 0.0 0.00 4.09 4.09 100 1010.6
20260904024557 13 43 0.0 0.0 0.00 4.09 4.09 100 1010.6
20260904023055 13 42 0.0 1.6 0.00 4.09 4.09 100 1010.7
20260904021555 13 44 1.6 6.4 0.00 4.09 4.09 99 1010.6
20260904020101 14 99 0.0 6.4 0.00 4.11 4.09 100 1010.7
20260904014643 14 44 1.6 6.4 0.00 4.11 4.09 100 1010.7
20260904013105 14 95 0.0 0.0 0.00 4.11 4.09 99 1010.6
20260904011603 14 95 0.0 0.0 0.00 4.11 4.09 98 1010.7
20260904010058 15 95 1.6 6.4 0.03 4.11 4.09 98 1010.6
20260904004551 14 114 0.0 4.8 0.15 4.11 4.09 97 1010.5
20260904003058 14 114 0.0 4.8 0.15 4.11 4.09 97 1010.3
20260904001550 13 74 0.0 3.2 0.23 4.11 4.09 98 1010.4
20260904000050 14 95 1.6 4.8 0.30 4.09 4.06 98 1010.4
20260903234549 14 15 0.0 6.4 0.18 3.96 3.94 97 1010.5
20260903233049 14 332 1.6 6.4 0.18 3.96 3.94 95 1010.3
20260903231548 15 324 4.8 11.3 0.10 3.89 3.86 91 1010.4
20260903224548 16 342 4.8 11.3 0.00 3.78 3.76 82 1010.0
20260903223046 17 322 4.8 14.5 0.00 3.78 3.76 81 1010.0
20260903221545 18 195 8.0 19.3 0.00 3.78 3.76 73 1010.1
20260903220042 17 151 1.6 6.4 0.00 3.78 3.76 78 1010.0
20260903214544 17 126 1.6 9.7 0.00 3.78 3.76 79 1010.0